User: anonymous   Login
Location: Koussan�
(15.2012°N, 12.5548°W)
Time: 16:14:20
(UTC+00:00)
Language:

Aureole 2 - Orbit

View from above orbital plane
View from above orbital plane
View from above satellite
View from above satellite

Ground track
Ground track

The orbit data is extracted from the following two-line orbital elements,

1 07003U 73107A   21018.84471974  .00003031  00000-0  11762-3 0  9991
2 07003  73.9275 308.6905 0377819 355.4186   4.3558 14.79581869407074
Epoch (UTC): 18 January 2021 20:16:23
Eccentricity: 0.0377819
inclination: 73.9275°
perigee height: 366 km
apogee height: 895 km
right ascension of ascending node: 308.6905°
argument of perigee: 355.4186°
revolutions per day: 14.79581869
mean anomaly at epoch: 4.3558°
orbit number at epoch: 40707

The dashed part of the orbit path shows where the satellite is in the earth's shadow,  

DLR